| time (UTC) | temp C | wind direction | speed KPH | gust KPH | rain 1hr cm | rain 24hr cm | rain mn cm | humidity % | barometer mb |
| 20260509212325 | 10 | 237 | 0.0 | 0.0 | 0.00 | 0.00 | 0.00 | 83 | 1017.9 |
| 20260509210825 | 10 | 222 | 0.0 | 1.6 | 0.00 | 0.00 | 0.00 | 83 | 1018.1 |
| 20260509205323 | 11 | 232 | 0.0 | 1.6 | 0.00 | 0.00 | 0.00 | 80 | 1018.0 |
| 20260509203818 | 10 | 221 | 0.0 | 1.6 | 0.00 | 0.00 | 0.00 | 81 | 1018.2 |
| 20260509202314 | 11 | 222 | 1.6 | 1.6 | 0.00 | 0.00 | 0.00 | 80 | 1018.2 |
| 20260509200812 | 11 | 227 | 0.0 | 1.6 | 0.00 | 0.00 | 0.00 | 81 | 1018.2 |
| 20260509195311 | 11 | 224 | 0.0 | 1.6 | 0.00 | 0.00 | 0.00 | 79 | 1018.3 |
| 20260509193809 | 12 | 177 | 1.6 | 1.6 | 0.00 | 0.00 | 0.00 | 78 | 1018.6 |
| 20260509192307 | 12 | 209 | 1.6 | 1.6 | 0.00 | 0.00 | 0.00 | 79 | 1018.8 |
| 20260509190806 | 12 | 230 | 0.0 | 0.0 | 0.00 | 0.00 | 0.00 | 79 | 1018.7 |
| 20260509185306 | 12 | 233 | 0.0 | 0.0 | 0.00 | 0.00 | 0.00 | 78 | 1018.7 |
| 20260509183759 | 12 | 228 | 1.6 | 1.6 | 0.00 | 0.00 | 0.00 | 76 | 1019.0 |
| 20260509182259 | 12 | 194 | 1.6 | 1.6 | 0.00 | 0.00 | 0.00 | 78 | 1018.6 |
| 20260509180758 | 12 | 222 | 0.0 | 1.6 | 0.00 | 0.00 | 0.00 | 76 | 1018.6 |
| 20260509175252 | 12 | 174 | 1.6 | 1.6 | 0.00 | 0.00 | 0.00 | 82 | 1018.6 |
| 20260509173752 | 12 | 222 | 1.6 | 1.6 | 0.00 | 0.00 | 0.00 | 80 | 1018.3 |
| 20260509172252 | 12 | 241 | 0.0 | 0.0 | 0.00 | 0.00 | 0.00 | 79 | 1018.5 |
| 20260509170752 | 13 | 244 | 0.0 | 0.0 | 0.00 | 0.00 | 0.00 | 75 | 1018.2 |
| 20260509165249 | 13 | 246 | 0.0 | 0.0 | 0.00 | 0.00 | 0.00 | 73 | 1018.0 |
| 20260509163745 | 14 | 235 | 0.0 | 0.0 | 0.00 | 0.00 | 0.00 | 71 | 1018.0 |
| 20260509162244 | 15 | 195 | 0.0 | 0.0 | 0.00 | 0.00 | 0.00 | 71 | 1017.9 |
| 20260509160744 | 15 | 181 | 0.0 | 1.6 | 0.00 | 0.00 | 0.00 | 70 | 1017.8 |
| 20260509155245 | 15 | 240 | 0.0 | 0.0 | 0.00 | 0.00 | 0.00 | 70 | 1017.7 |
| 20260509153741 | 16 | 221 | 0.0 | 0.0 | 0.00 | 0.00 | 0.00 | 67 | 1017.8 |
| 20260509152242 | 17 | 270 | 0.0 | 0.0 | 0.00 | 0.00 | 0.00 | 62 | 1017.8 |
| 20260509150739 | 17 | 257 | 0.0 | 1.6 | 0.00 | 0.00 | 0.00 | 60 | 1017.5 |
| 20260509145239 | 18 | 274 | 0.0 | 1.6 | 0.00 | 0.00 | 0.00 | 57 | 1017.7 |
| 20260509143736 | 18 | 242 | 1.6 | 1.6 | 0.00 | 0.00 | 0.00 | 56 | 1017.4 |
| 20260509142231 | 19 | 262 | 1.6 | 1.6 | 0.00 | 0.00 | 0.00 | 55 | 1017.4 |
| 20260509140727 | 20 | 24 | 3.2 | 3.2 | 0.00 | 0.00 | 0.00 | 53 | 1017.5 |
| 20260509135226 | 20 | 56 | 1.6 | 3.2 | 0.00 | 0.00 | 0.00 | 52 | 1017.4 |
| 20260509133723 | 21 | 277 | 1.6 | 1.6 | 0.00 | 0.00 | 0.00 | 49 | 1017.4 |
| 20260509132222 | 21 | 280 | 4.8 | 8.0 | 0.00 | 0.00 | 0.00 | 49 | 1017.5 |
| 20260509130722 | 22 | 333 | 4.8 | 8.0 | 0.00 | 0.00 | 0.00 | 48 | 1017.7 |
| 20260509125218 | 21 | 324 | 1.6 | 1.6 | 0.00 | 0.00 | 0.00 | 50 | 1017.8 |
| 20260509123715 | 21 | 286 | 1.6 | 3.2 | 0.00 | 0.00 | 0.00 | 50 | 1017.9 |
| 20260509122210 | 21 | 18 | 3.2 | 3.2 | 0.00 | 0.00 | 0.00 | 49 | 1017.9 |
| 20260509120709 | 21 | 8 | 6.4 | 9.7 | 0.00 | 0.00 | 0.00 | 50 | 1018.1 |
| 20260509115207 | 20 | 287 | 6.4 | 8.0 | 0.00 | 0.00 | 0.00 | 51 | 1018.2 |
| 20260509113702 | 21 | 294 | 1.6 | 1.6 | 0.00 | 0.00 | 0.00 | 50 | 1018.1 |
| 20260509112157 | 21 | 354 | 0.0 | 1.6 | 0.00 | 0.00 | 0.00 | 51 | 1018.5 |
| 20260509110654 | 21 | 43 | 3.2 | 4.8 | 0.00 | 0.00 | 0.00 | 49 | 1018.7 |
| 20260509105152 | 21 | 294 | 1.6 | 1.6 | 0.00 | 0.00 | 0.00 | 50 | 1018.9 |
| 20260509103650 | 20 | 44 | 1.6 | 1.6 | 0.00 | 0.00 | 0.00 | 49 | 1019.3 |
| 20260509102148 | 20 | 315 | 4.8 | 4.8 | 0.00 | 0.00 | 0.00 | 51 | 1019.5 |
| 20260509100644 | 19 | 307 | 6.4 | 9.7 | 0.00 | 0.00 | 0.00 | 54 | 1019.6 |
| 20260509095141 | 20 | 351 | 1.6 | 3.2 | 0.00 | 0.00 | 0.00 | 53 | 1020.0 |
| 20260509093638 | 18 | 271 | 1.6 | 1.6 | 0.00 | 0.00 | 0.00 | 57 | 1020.5 |
| 20260509092137 | 17 | 67 | 1.6 | 1.6 | 0.00 | 0.00 | 0.00 | 58 | 1020.5 |
| 20260509090634 | 17 | 341 | 1.6 | 1.6 | 0.00 | 0.00 | 0.00 | 59 | 1020.9 |
| 20260509085130 | 16 | 297 | 1.6 | 1.6 | 0.00 | 0.00 | 0.00 | 62 | 1021.1 |
| 20260509083628 | 17 | 149 | 1.6 | 1.6 | 0.00 | 0.00 | 0.00 | 60 | 1021.2 |
| 20260509082124 | 16 | 48 | 6.4 | 8.0 | 0.00 | 0.00 | 0.00 | 60 | 1021.3 |
| 20260509080623 | 15 | 4 | 4.8 | 8.0 | 0.00 | 0.00 | 0.00 | 63 | 1021.5 |
| 20260509075121 | 15 | 31 | 6.4 | 11.3 | 0.00 | 0.00 | 0.00 | 64 | 1021.6 |
| 20260509073617 | 14 | 59 | 1.6 | 1.6 | 0.00 | 0.00 | 0.00 | 68 | 1021.6 |
| 20260509072113 | 13 | 93 | 3.2 | 4.8 | 0.00 | 0.00 | 0.00 | 71 | 1021.6 |
| 20260509070610 | 13 | 61 | 0.0 | 0.0 | 0.00 | 0.00 | 0.00 | 73 | 1021.5 |
| 20260509065110 | 13 | 29 | 1.6 | 3.2 | 0.00 | 0.00 | 0.00 | 71 | 1021.2 |
| 20260509063608 | 12 | 199 | 1.6 | 1.6 | 0.00 | 0.00 | 0.00 | 75 | 1020.8 |
| 20260509062104 | 12 | 114 | 0.0 | 0.0 | 0.00 | 0.00 | 0.00 | 75 | 1020.6 |
| 20260509060602 | 10 | 258 | 0.0 | 0.0 | 0.00 | 0.00 | 0.00 | 84 | 1020.6 |
| 20260509055101 | 11 | 234 | 0.0 | 0.0 | 0.00 | 0.00 | 0.00 | 81 | 1020.5 |
| 20260509053600 | 8 | 251 | 0.0 | 0.0 | 0.00 | 0.00 | 0.00 | 90 | 1020.4 |
| 20260509052058 | 5 | 239 | 0.0 | 0.0 | 0.00 | 0.00 | 0.00 | 99 | 1020.1 |
| 20260509050555 | 3 | 234 | 0.0 | 0.0 | 0.00 | 0.00 | 0.00 | 99 | 1020.3 |
| 20260509045052 | 3 | 242 | 0.0 | 0.0 | 0.00 | 0.00 | 0.00 | 99 | 1020.0 |
| 20260509043549 | 3 | 228 | 0.0 | 0.0 | 0.00 | 0.00 | 0.00 | 99 | 1020.0 |
| 20260509042049 | 3 | 223 | 0.0 | 0.0 | 0.00 | 0.00 | 0.00 | 99 | 1019.8 |
| 20260509040547 | 3 | 241 | 0.0 | 0.0 | 0.00 | 0.00 | 0.00 | 99 | 1019.7 |
| 20260509035043 | 3 | 193 | 0.0 | 1.6 | 0.00 | 0.00 | 0.00 | 99 | 1019.6 |
| 20260509033541 | 3 | 212 | 1.6 | 1.6 | 0.00 | 0.00 | 0.00 | 99 | 1019.7 |
| 20260509032038 | 3 | 229 | 0.0 | 0.0 | 0.00 | 0.00 | 0.00 | 99 | 1019.7 |
| 20260509030536 | 3 | 240 | 0.0 | 0.0 | 0.00 | 0.00 | 0.00 | 99 | 1019.6 |
| 20260509025036 | 3 | 235 | 0.0 | 0.0 | 0.00 | 0.00 | 0.00 | 99 | 1019.6 |
| 20260509023532 | 3 | 211 | 1.6 | 1.6 | 0.00 | 0.00 | 0.00 | 99 | 1019.4 |
| 20260509022029 | 4 | 160 | 0.0 | 0.0 | 0.00 | 0.00 | 0.00 | 99 | 1019.8 |
| 20260509020527 | 4 | 189 | 1.6 | 1.6 | 0.00 | 0.00 | 0.00 | 99 | 1019.6 |
| 20260509015025 | 4 | 238 | 0.0 | 0.0 | 0.00 | 0.00 | 0.00 | 99 | 1019.8 |
| 20260509013521 | 4 | 237 | 0.0 | 0.0 | 0.00 | 0.00 | 0.00 | 99 | 1019.6 |
| 20260509012016 | 4 | 244 | 0.0 | 0.0 | 0.00 | 0.00 | 0.00 | 99 | 1019.6 |
| 20260509010515 | 4 | 215 | 1.6 | 1.6 | 0.00 | 0.00 | 0.00 | 99 | 1019.6 |
| 20260509005015 | 3 | 238 | 0.0 | 0.0 | 0.00 | 0.00 | 0.00 | 99 | 1019.7 |
| 20260509003513 | 4 | 243 | 0.0 | 0.0 | 0.00 | 0.00 | 0.00 | 99 | 1019.6 |
| 20260509002010 | 5 | 238 | 0.0 | 0.0 | 0.00 | 0.00 | 0.00 | 99 | 1019.8 |
| 20260509000508 | 5 | 238 | 0.0 | 0.0 | 0.00 | 0.00 | 0.00 | 99 | 1019.7 |
| 20260508235008 | 5 | 231 | 0.0 | 0.0 | 0.00 | 0.00 | 0.00 | 99 | 1019.7 |
| 20260508233509 | 5 | 244 | 0.0 | 0.0 | 0.00 | 0.00 | 0.00 | 99 | 1020.1 |
| 20260508232005 | 5 | 224 | 0.0 | 0.0 | 0.00 | 0.00 | 0.00 | 99 | 1019.6 |
| 20260508230502 | 5 | 241 | 0.0 | 0.0 | 0.00 | 0.00 | 0.00 | 99 | 1019.7 |
| 20260508224958 | 5 | 239 | 0.0 | 0.0 | 0.00 | 0.00 | 0.00 | 99 | 1019.7 |
| 20260508223457 | 5 | 243 | 0.0 | 0.0 | 0.00 | 0.00 | 0.00 | 98 | 1019.7 |
| 20260508221953 | 5 | 244 | 0.0 | 0.0 | 0.00 | 0.00 | 0.00 | 99 | 1019.5 |
| 20260508220448 | 5 | 246 | 0.0 | 0.0 | 0.00 | 0.00 | 0.00 | 98 | 1019.6 |
| 20260508214944 | 6 | 233 | 0.0 | 0.0 | 0.00 | 0.00 | 0.00 | 98 | 1019.6 |
| 20260508213441 | 6 | 232 | 0.0 | 0.0 | 0.00 | 0.00 | 0.00 | 98 | 1019.7 |